This demonstration page uses our WeatherBlox Daily Observations layout. Learn more.

Left ArrowRight Arrow

Hourly Observations for September 10, 2022

Temp ( °F °C ) Dew Point ( °F °C ) Humidity (%) Winds ( mph kmh ) Pressure ( in mb ) Visibility ( mi km ) Precip ( " mm )
12:55 am 00:55 Mostly Clear 62 16.9 53 11.8 72 72 NNE 9 15 30.01 1016 10 16 0.00 0.00
1:55 am 01:55 Cloudy 63 17 52 11 68 68 N 8 13 30.04 1017 10 16 0.00 0.00
2:55 am 02:55 Cloudy 62 16.7 51 10.8 68 68 NNW 14 22 30.07 1018 10 16 0.00 0.00
3:55 am 03:55 Cloudy 60 15.7 52 11.3 75 75 NNW 17 28 30.12 1020 10 16 0.00 0.00
4:10 am 04:10 Cloudy with Light Rain 61 16 52 11 72 72 NNW 20 31 30.14 1021 10 16 0.01 0.13
4:55 am 04:55 Mostly Cloudy with Rain 57 13.8 53 11.7 87 87 NE 9 15 30.06 1018 10 16 0.05 1.27
5:16 am 05:16 Mostly Clear with Thunderstorms 57 14 54 12 88 88 NW 14 22 30.10 1019 3 5 0.15 3.81
5:55 am 05:55 Mostly Cloudy with Light Rain 55 13 52 11 88 88 N 15 24 30.09 1019 10 16 0.17 4.32
6:55 am 06:55 Mostly Cloudy with Rain 55 13 54 12 94 94 NE 8 13 30.09 1019 8 13 0.13 3.30
7:55 am 07:55 Mostly Cloudy with Light Rain 56 13.2 52 11.3 88 88 N 9 15 30.14 1021 10 16 0.07 1.78
8:16 am 08:16 Cloudy 55 13 52 11 88 88 N 10 17 30.13 1020 10 16 0.00 0.00
8:38 am 08:38 Cloudy with Light Showers 55 13 52 11 88 88 NNW 8 13 30.16 1021 10 16 0.00 0.00
8:55 am 08:55 Cloudy with Light Showers 56 13.2 52 11.3 88 88 N 13 20 30.16 1021 9 14 0.01 0.25
9:55 am 09:55 Cloudy with Light Showers 56 13.2 52 11.3 88 88 N 12 19 30.19 1022 10 16 0.02 0.51
10:12 am 10:12 Cloudy 55 13 52 11 88 88 N 9 15 30.20 1023 10 16 0.00 0.00
10:46 am 10:46 Mostly Cloudy with Light Showers 57 14 52 11 82 82 N 6 9 30.21 1023 10 16 0.00 0.00
10:55 am 10:55 Cloudy with Showers 56 13.6 53 11.6 88 88 N 8 13 30.21 1023 7 11 0.02 0.51
11:55 am 11:55 Mostly Cloudy with Rain 57 13.9 53 11.9 88 88 NNE 9 15 30.20 1023 7 11 0.09 2.29
12:55 pm 12:55 Mostly Cloudy with Light Rain 59 15 55 13 88 88 NNW 13 20 30.21 1023 10 16 0.06 1.52
1:25 pm 13:25 Cloudy 61 16 55 13 82 82 N 8 13 30.21 1023 10 16 0.00 0.00
1:55 pm 13:55 Mostly Cloudy 61 16.3 55 13 81 81 N 7 11 30.21 1023 10 16 0.01 0.13
2:55 pm 14:55 Mostly Cloudy 62 16.7 55 13 79 79 NNW 8 13 30.19 1023 10 16 0.00 0.00
3:55 pm 15:55 Mostly Cloudy 64 17.7 55 12.8 73 73 N 8 13 30.19 1023 10 16 0.00 0.00
4:55 pm 16:55 Mostly Cloudy 64 18 56 13.1 73 73 NNW 5 7 30.19 1022 10 16 0.00 0.00
5:55 pm 17:55 Mostly Cloudy 66 18.8 53 11.8 64 64 NNW 7 11 30.19 1022 10 16 0.00 0.00
6:55 pm 18:55 Mostly Cloudy 67 19.5 51 10.5 56 56 N 7 11 30.19 1023 10 16 0.00 0.00
7:55 pm 19:55 Clear 63 17 51 10.6 66 66 NW 6 9 30.20 1023 10 16 0.00 0.00
8:55 pm 20:55 Clear 59 15.1 52 11.1 77 77 WNW 7 11 30.21 1023 7 11 0.00 0.00
9:55 pm 21:55 Clear 57 14 51 10.8 81 81 WNW 8 13 30.23 1024 10 16 0.00 0.00
10:55 pm 22:55 Clear 56 13.1 51 10.3 83 83 NW 3 6 30.24 1024 10 16 0.00 0.00
11:55 pm 23:55 Clear 55 12.8 51 10.3 85 85 NNW 5 7 30.26 1025 10 16 0.00 0.00

Powered by AerisWeather